COSMOS 2251 DEB, 36005

Orbit data source: Space-Track

COSMOS 2251 DEB, 36005 is space debris in LEO originally from a launch on Wed, 16 Jun 1993 UTC launched from the Plesetsk Missile And Space Complex (PKMTR). The debris from Iridium 33, an American commercial communications satellite, has been tracked extensively since its accidental collision with the defunct Russian satellite Cosmos 2251 in 2009. This event, occurring at high speed in low Earth orbit (LEO), generated thousands of pieces of space debris, significantly increasing the risk of further collisions. The Iridium 33 debris cloud has impacted space traffic management and orbital debris mitigation strategies, making it a subject of ongoing study in space situational awareness.

Loading next visibility...
Identifier
36005, 1993-036AWX
Orbit
LEO
Country
Flag of CISCIS
Related business
Manufacturer
Unknown
Mission
Spacecraft
Bus & Motor
Unknown
Mass
Unknown
Launch date (UTC)
1993-06-16 (33 years ago)
Launch vehicle
Unknown
Launch site
Plesetsk Missile And Space Complex (PKMTR)
Object type
Payload
Rocket body
Debris
Shape & HBR
Unknown shape, 0.1 m
Radar Cross Section
Small (<0.1 m²)

Expand to show TLE details & history
Last TLE update: 17 hours ago

TLE from 17 hours ago
0 COSMOS 2251 DEB
1 36005U 93036AWX 26035.91739703  .00000762  00000-0  21035-3 0  9999
2 36005  74.0286 352.6284 0059772 116.5948 244.1352 14.47446695883681
Epoch: 2026-02-04T22:01Z
TLE epoch observation values (Epoch: 2026-02-04T22:01:03.103Z)
Latitude
-0.0001°
Longitude
-112.71166°
Altitude
755.378 km
Speed
7.467 km/s
True Right ascension
23h 30m 30s
True Declination
0° 00' 00"
Sunlit
Object was in daylight at epoch
Visualization orbit readout
Latitude
Unknown
Longitude
Unknown
Altitude
Unknown
Speed
Unknown
Apparent Right ascension
Unknown
Apparent Declination
Unknown
Sunlit
N/A
Visualization observer readout
Local Sidereal Time
16:55:55
Azimuth
Unknown
Elevation
Unknown
Doppler factor
Unknown
Orbital elements
Apogee altitude
774.108 km
Perigee altitude
689.116 km
Semi-major axis
7,109.749 km
Eccentricity
0.00598
Inclination
74.0286°
RAAN
352.6284°
Arg. of periapsis
116.5948°
True anomaly
243.52089°
Mean anomaly
244.1352°
Eccentric anomaly
243.82784°
Mean motion
3.62044 °/min
Orbital period
99.44 mins
BSTAR
0.00021035
Loading maneuver chart data...
Computing Atmospheric mass density...

Documentation

Showing up to 5 results
|